sat.trackr.live / text

‹ back to catalog

STARLINK-32485

NORAD 62143 · 2024-224E

PAYLOAD ACTIVE UNKNOWN

§ Identity

Operator
Country
US
Launch date
2024-11-30
Launch site
AFETR
Launch vehicle
Mass (kg)
RCS (m²)

Purposes: comms

External: N2YO · Heavens-Above · Gunter

§ Orbital elements

Epoch: 2026-09-21T03:10:07.188096Z

Period
94.27 min
Inclination
42.9960°
Eccentricity
0.0001459
Mean motion
15.27569321 rev/d
Perigee alt
482.1 km
Apogee alt
484.1 km
Semi-major
6,861.2 km
B*
3.2689e-4
RAAN
137.5299°
Arg perigee
289.9320°
Mean anomaly
70.1374°
Rev number
10,190

§ Raw data

STARLINK-324851 62143U 24224E   26264.13202764  .00008741  00000+0  32689-3 0  99952 62143  42.9960 137.5299 0001459 289.9320  70.1374 15.27569321101900

JSON: /api/v1/satellites/62143 · /tle

For live sub-satellite position, see the globe view (requires WebGL).

§ Visibility from observer

Set your observer location to see the next 7 days of passes ≥ 10°. The values pass through the URL so the page stays shareable.

No JS? Fill the form by hand. The geolocation button needs JavaScript.